FENGYUN 1C DEB

Satellite information

Favourite Embed

Satellite Type and Status

DEBRISIN ORBIT

Key statistics

Satellite FENGYUN 1C DEB at a glance.

Uptime

9495

Days in orbit

Revolutions

≈ 14.3

Per day

Orbit

SSO

Sun Synchronous Orbit

Inclination

99.0

Latest

Satellite identification and parameters

Extended collection of information and parameters for FENGYUN 1C DEB.

Object identification

Identified? True

Debris? True

Object name: FENGYUN 1C DEB

International designator: 1999-025EN

Object number (NORAD): 29844

Object ID (CCSDS): 29844

Country: PEOPLES REPUBLIC OF CHINA (PRC)

Current information (Y/N): Y

RCS size: SMALL

Orbital parameters

Period: 100.617 minutes

Inclination: 98.955 deg

SMA: 7165.971 km

Apoapsis: 910.682 km

Periapsis: 664.99 km

RAAN: 22.3506 deg

Eccentricy: 0.017143

Argument of periapsis: 86.399 deg

Mean anomaly: 275.6779 deg

Mean motion: 14.31166608 rev/day

Mean motion (dot): 0.00002037 rev/day2

B* drag term: 0.00067269 1/REarth

Two-line elements (TLE)

Creation date: May 8, 2025, 3:01 a.m.

Reference frame: TEME

Reference center: EARTH

Epoch: May 7, 2025, 3:07 p.m. UTC

TLE line 0: 0 FENGYUN 1C DEB

TLE line 1: 1 29844U 99025EN 25127.63040112 .00002037 00000-0 67269-3 0 9991

TLE line 2: 2 29844 98.9550 22.3506 0171430 86.3990 275.6779 14.31166608952065

Live tracking on map

Real-time ground track for satellite FENGYUN 1C DEB.

In-orbit conjunctions

A list of the most updated potential collisions computed for object FENGYUN 1C DEB.

Target Orbit TCA Probability of collision Miss distance Type
PICOSAT 1&2 (TETHERED) SSO 2025-02-10 04:26:57 0.0001151206 909.0 (m) PAYLOAD
CZ-4 DEB SSO 2024-11-12 13:12:54 0.0003538056 645.0 (m) DEBRIS
CZ-6A DEB LEO 2024-10-18 20:53:38 0.0001130523 187.0 (m) DEBRIS
NOAA 16 DEB SSO 2024-09-26 03:14:46 0.0001969186 810.0 (m) DEBRIS
DMSP 5D-2 F14 DEB SSO 2024-08-01 05:50:23 0.0002642094 51.0 (m) DEBRIS

Associated space launch

Chinese polar orbiting meteorological satellite

FENGYUN 1C DEB was lifted into orbit during the mission ‘Long March 4B | Feng Yun 1C’, on board a Long March 4B space rocket.

The launch took place on May 10, 1999, 1:33 a.m. from Launch Complex 7.

For more information about the launch, click the button.

Launch to space Long March 4B | Feng Yun 1C
Long March 4B | Feng Yun 1C

Agency: N/A

Status: Launch Successful

Launch date: May 10, 1999, 1:33 a.m. UTC

Rocket: Long March 4B

Launch pad: Launch Complex 7

Location: Taiyuan Satellite Launch Center, People's Republic of China

...

Latest news about this satellite

There are no fresh news available about this satellite. Check back as we update our databases every day.


Newsletter sign-up

Weekly statistics, charts and insights to help you stay on top of the space industry.